GW2123 Weather Reports


time (UTC)temp
C
wind
direction
speed
KPH
gust
KPH
rain 1hr
cm
rain 24hr
cm
rain mn
cm
humidity
%
barometer
mb
20260507143047 9 0 0.0 0.0 0.00 0.00 0.00 51 1012.7
20260507142542 8 0 0.0 0.0 0.00 0.00 0.00 51 1012.7
20260507142041 8 0 0.0 0.0 0.00 0.00 0.00 51 1012.8
20260507141552 8 0 0.0 0.0 0.00 0.00 0.00 51 1012.9
20260507141041 8 0 0.0 0.0 0.00 0.00 0.00 51 1012.7
20260507140540 8 0 0.0 0.0 0.00 0.00 0.00 50 1012.8
20260507140104 7 0 0.0 0.0 0.00 0.00 0.00 47 1012.8
20260507135541 7 0 0.0 0.0 0.00 0.00 0.00 43 1012.8
20260507135041 7 0 0.0 0.0 0.00 0.00 0.00 44 1012.9
20260507134553 7 0 0.0 0.0 0.00 0.00 0.00 42 1012.8
20260507134040 7 0 0.0 0.0 0.00 0.00 0.00 42 1012.8
20260507133542 7 0 0.0 3.2 0.00 0.00 0.00 39 1012.8
20260507133057 7 0 0.0 3.2 0.00 0.00 0.00 36 1012.8
20260507132540 7 0 0.0 0.0 0.00 0.00 0.00 36 1012.9
20260507132043 6 0 0.0 0.0 0.00 0.00 0.00 35 1012.8
20260507131603 6 0 0.0 0.0 0.00 0.00 0.00 31 1012.9
20260507131044 6 0 0.0 1.6 0.00 0.00 0.00 29 1012.9
20260507130541 6 0 0.0 1.6 0.00 0.00 0.00 26 1012.8
20260507130105 5 0 0.0 0.0 0.00 0.00 0.00 24 1012.9
20260507125541 5 0 0.0 0.0 0.00 0.00 0.00 25 1012.7
20260507125040 5 0 0.0 0.0 0.00 0.00 0.00 23 1012.7
20260507124603 5 0 0.0 0.0 0.00 0.00 0.00 22 1012.7
20260507124041 5 0 0.0 0.0 0.00 0.00 0.00 23 1012.8
20260507123542 5 0 0.0 0.0 0.00 0.00 0.00 24 1012.7
20260507123058 5 0 0.0 0.0 0.00 0.00 0.00 28 1012.6
20260507122540 5 0 0.0 0.0 0.00 0.00 0.00 29 1012.6
20260507122042 5 0 0.0 0.0 0.00 0.00 0.00 22 1012.6
20260507121554 5 0 0.0 0.0 0.00 0.00 0.00 23 1012.6
20260507121041 5 0 0.0 0.0 0.00 0.00 0.00 26 1012.6
20260507120540 5 0 0.0 0.0 0.00 0.00 0.00 26 1012.6
20260507120051 5 0 0.0 0.0 0.00 0.00 0.00 20 1012.6
20260507115541 4 0 0.0 0.0 0.00 0.00 0.00 21 1012.5
20260507115040 4 0 0.0 0.0 0.00 0.00 0.00 20 1012.5
20260507114552 4 0 0.0 0.0 0.00 0.00 0.00 15 1012.4
20260507114040 3 0 0.0 0.0 0.00 0.00 0.00 17 1012.3
20260507113541 3 0 0.0 0.0 0.00 0.00 0.00 19 1012.2
20260507113050 3 0 0.0 0.0 0.00 0.00 0.00 3 1012.2
20260507112541 3 0 0.0 0.0 0.00 0.00 0.00 3 1012.2
20260507112041 3 0 0.0 0.0 0.00 0.00 0.00 4 1012.2
20260507111549 3 0 0.0 0.0 0.00 0.00 0.00 5 1012.2
20260507111042 3 0 0.0 0.0 0.00 0.00 0.00 7 1012.0
20260507110541 3 0 0.0 0.0 0.00 0.00 0.00 5 1012.0
20260507110049 3 0 0.0 0.0 0.00 0.00 0.00 5 1011.9
20260507105540 3 0 0.0 0.0 0.00 0.00 0.00 3 1012.0
20260507105041 3 0 0.0 0.0 0.00 0.00 0.00 4 1012.0
20260507104552 3 0 0.0 0.0 0.00 0.00 0.00 100 1011.9
20260507104037 3 0 0.0 0.0 0.00 0.00 0.00 100 1012.0
20260507103540 3 0 0.0 0.0 0.00 0.00 0.00 100 1011.8
20260507103052 3 0 0.0 0.0 0.00 0.00 0.00 5 1011.8
20260507102541 3 0 0.0 0.0 0.00 0.00 0.00 13 1011.8
20260507102040 3 0 0.0 0.0 0.00 0.00 0.00 17 1011.8
20260507101548 3 0 0.0 0.0 0.00 0.00 0.00 16 1011.9
20260507101041 3 0 0.0 0.0 0.00 0.00 0.00 17 1011.8
20260507100541 3 0 0.0 0.0 0.00 0.00 0.00 17 1011.8
20260507100046 3 0 0.0 0.0 0.00 0.00 0.00 15 1011.8
20260507095540 3 0 0.0 0.0 0.00 0.00 0.00 13 1011.7
20260507095039 3 0 0.0 0.0 0.00 0.00 0.00 14 1011.7
20260507094544 3 0 0.0 0.0 0.00 0.00 0.00 12 1011.7
20260507094041 3 0 0.0 0.0 0.00 0.00 0.00 10 1011.8
20260507093541 3 0 0.0 0.0 0.00 0.00 0.00 12 1011.8
20260507093049 3 0 0.0 0.0 0.00 0.00 0.00 12 1011.8
20260507092541 3 0 0.0 0.0 0.00 0.00 0.00 14 1011.8
20260507092043 3 0 0.0 0.0 0.00 0.00 0.00 17 1012.0
20260507091548 3 0 0.0 0.0 0.00 0.00 0.00 16 1011.9
20260507091044 3 0 0.0 0.0 0.00 0.00 0.00 19 1011.9
20260507090541 3 0 0.0 0.0 0.00 0.00 0.00 16 1011.9
20260507090047 4 0 0.0 0.0 0.00 0.00 0.00 10 1011.9
20260507085541 4 0 0.0 0.0 0.00 0.00 0.00 10 1011.9
20260507085040 4 0 0.0 0.0 0.00 0.00 0.00 4 1011.9
20260507084552 4 0 0.0 0.0 0.00 0.00 0.00 5 1012.0
20260507084041 4 0 0.0 0.0 0.00 0.00 0.00 100 1011.9
20260507083540 4 0 0.0 0.0 0.00 0.00 0.00 3 1012.0
20260507083053 5 0 0.0 0.0 0.00 0.00 0.00 100 1012.1
20260507082544 5 0 0.0 0.0 0.00 0.00 0.00 2 1012.0
20260507082044 5 0 0.0 0.0 0.00 0.00 0.00 7 1012.1
20260507081550 5 0 0.0 0.0 0.00 0.00 0.00 11 1012.1
20260507081041 5 0 0.0 0.0 0.00 0.00 0.00 15 1012.1
20260507080541 5 0 0.0 0.0 0.00 0.00 0.00 19 1012.1
20260507080114 5 0 0.0 0.0 0.00 0.00 0.00 22 1012.0
20260507075541 5 0 0.0 0.0 0.00 0.00 0.00 23 1011.9
20260507075041 5 0 0.0 0.0 0.00 0.00 0.00 27 1011.9
20260507074558 5 0 0.0 0.0 0.00 0.00 0.00 30 1011.9
20260507074115 6 0 0.0 0.0 0.00 0.00 0.00 33 1012.1
20260507073543 6 0 0.0 0.0 0.00 0.00 0.00 35 1012.0
20260507073059 6 0 0.0 0.0 0.00 0.00 0.00 36 1012.1
20260507072541 6 0 0.0 0.0 0.00 0.00 0.00 40 1012.0
20260507072046 6 0 0.0 0.0 0.00 0.00 0.00 42 1011.9
20260507071600 6 0 0.0 0.0 0.00 0.00 0.00 43 1011.8
20260507071043 6 0 0.0 0.0 0.00 0.00 0.00 42 1011.9
20260507070541 6 0 0.0 0.0 0.00 0.00 0.00 42 1011.9
20260507070051 6 0 0.0 0.0 0.00 0.00 0.00 43 1011.9
20260507065540 6 0 0.0 0.0 0.00 0.00 0.00 43 1012.0
20260507065040 6 0 0.0 0.0 0.00 0.00 0.00 45 1012.1
20260507064557 6 0 0.0 0.0 0.00 0.00 0.00 48 1012.1
20260507064041 6 0 0.0 0.0 0.00 0.00 0.00 48 1012.1
20260507063540 6 0 0.0 0.0 0.00 0.00 0.00 49 1012.2
20260507063054 6 0 0.0 0.0 0.00 0.00 0.00 49 1012.3
20260507062540 6 0 0.0 0.0 0.00 0.00 0.00 48 1012.2
20260507062040 6 0 0.0 0.0 0.00 0.00 0.00 49 1012.3
20260507061551 6 0 0.0 0.0 0.00 0.00 0.00 50 1012.3
20260507061040 6 0 0.0 0.0 0.00 0.00 0.00 51 1012.3
20260507060541 6 0 0.0 0.0 0.00 0.00 0.00 51 1012.4
20260507060051 6 0 0.0 0.0 0.00 0.00 0.00 50 1012.4
20260507055540 6 0 0.0 0.0 0.00 0.00 0.00 51 1012.4
20260507055043 6 0 0.0 0.0 0.00 0.00 0.00 51 1012.5
20260507054604 7 0 0.0 0.0 0.00 0.00 0.00 52 1012.5
20260507054040 7 0 0.0 0.0 0.00 0.00 0.00 52 1012.6
20260507053541 7 0 0.0 0.0 0.00 0.00 0.00 52 1012.5
20260507053056 7 0 0.0 0.0 0.00 0.00 0.00 52 1012.6
20260507052540 7 0 0.0 0.0 0.00 0.00 0.00 52 1012.6
20260507052041 7 0 0.0 0.0 0.00 0.00 0.00 52 1012.6
20260507051600 7 0 0.0 0.0 0.00 0.00 0.00 52 1012.7
20260507051041 7 0 0.0 0.0 0.00 0.00 0.00 52 1012.7
20260507050544 7 0 0.0 0.0 0.00 0.00 0.00 52 1012.6
20260507050050 7 0 0.0 0.0 0.00 0.00 0.00 52 1012.6
20260507045543 7 0 0.0 0.0 0.00 0.00 0.00 52 1012.5
20260507045040 7 0 0.0 0.0 0.00 0.00 0.00 52 1012.5
20260507044556 7 0 0.0 0.0 0.00 0.00 0.00 52 1012.5
20260507044042 7 0 0.0 0.0 0.00 0.00 0.00 52 1012.5
20260507043543 7 0 0.0 0.0 0.00 0.00 0.00 52 1012.5
20260507043055 7 0 0.0 0.0 0.00 0.00 0.00 52 1012.5
20260507042541 7 0 0.0 0.0 0.00 0.00 0.00 52 1012.5
20260507042042 7 0 0.0 0.0 0.00 0.00 0.00 52 1012.5
20260507041559 7 0 0.0 0.0 0.00 0.00 0.00 52 1012.6
20260507041419 8 0 0.0 0.0 0.00 0.00 0.00 52 1012.6
20260507040541 8 0 0.0 0.0 0.00 0.00 0.00 52 1012.5
20260507040100 8 0 0.0 0.0 0.00 0.00 0.00 51 1012.5
20260507035540 8 0 0.0 0.0 0.00 0.00 0.00 51 1012.4
20260507035040 8 0 0.0 0.0 0.00 0.00 0.00 51 1012.5
20260507034557 8 0 0.0 0.0 0.00 0.00 0.00 51 1012.5
20260507034038 8 0 0.0 0.0 0.00 0.00 0.00 51 1012.5
20260507033537 8 0 0.0 0.0 0.00 0.00 0.00 51 1012.5
20260507033048 8 0 0.0 0.0 0.00 0.00 0.00 50 1012.4
20260507032544 8 0 0.0 0.0 0.00 0.00 0.00 50 1012.5
20260507032042 8 0 0.0 0.0 0.00 0.00 0.00 50 1012.5
20260507031549 8 0 0.0 0.0 0.00 0.00 0.00 50 1012.5
20260507031042 8 0 0.0 0.0 0.00 0.00 0.00 50 1012.5
20260507030541 8 0 0.0 1.6 0.00 0.00 0.00 50 1012.5
20260507030054 8 0 0.0 1.6 0.00 0.00 0.00 50 1012.5
20260507025539 8 0 0.0 1.6 0.00 0.00 0.00 50 1012.5
20260507025042 8 0 0.0 1.6 0.00 0.00 0.00 50 1012.5
20260507024550 8 0 0.0 0.0 0.00 0.00 0.00 49 1012.4
20260507024043 8 0 0.0 0.0 0.00 0.00 0.00 49 1012.5
20260507023539 9 0 0.0 0.0 0.00 0.00 0.00 49 1012.4
20260507023047 9 0 0.0 0.0 0.00 0.00 0.00 48 1012.3
20260507022543 9 0 0.0 0.0 0.00 0.00 0.00 49 1012.4
20260507022042 9 0 0.0 4.8 0.00 0.00 0.00 49 1012.3
20260507021551 9 0 0.0 4.8 0.00 0.00 0.00 48 1012.2
20260507021042 9 0 0.0 4.8 0.00 0.00 0.00 48 1012.2
20260507020543 9 0 0.0 0.0 0.00 0.00 0.00 49 1012.2
20260507015542 9 0 0.0 0.0 0.00 0.00 0.00 48 1012.2
20260507015043 9 0 0.0 0.0 0.00 0.00 0.00 47 1012.2
20260507014559 10 0 0.0 0.0 0.00 0.00 0.00 47 1012.2
20260507014042 10 0 0.0 0.0 0.00 0.00 0.00 47 1012.1
20260507013545 10 0 0.0 0.0 0.00 0.00 0.00 46 1012.1
20260507013045 10 0 0.0 0.0 0.00 0.00 0.00 46 1012.1
20260507012542 10 0 0.0 0.0 0.00 0.00 0.00 45 1012.0
20260507012042 10 0 0.0 1.6 0.00 0.00 0.00 46 1012.1
20260507011602 10 0 0.0 1.6 0.00 0.00 0.00 46 1012.1
20260507011042 10 0 0.0 0.0 0.00 0.00 0.00 45 1012.0
20260507010543 10 0 0.0 0.0 0.00 0.00 0.00 44 1012.0
20260507010049 10 0 0.0 0.0 0.00 0.00 0.00 44 1012.1
20260507005543 10 0 0.0 0.0 0.00 0.00 0.00 43 1012.0
20260507005046 10 0 0.0 0.0 0.00 0.00 0.00 42 1011.9
20260507004546 10 0 0.0 0.0 0.00 0.00 0.00 43 1011.8
20260507004042 10 0 0.0 0.0 0.00 0.00 0.00 42 1011.7
20260507003547 10 0 0.0 0.0 0.00 0.00 0.00 42 1011.6
20260507003049 10 0 0.0 0.0 0.00 0.00 0.00 42 1011.6
20260507002542 10 0 0.0 0.0 0.00 0.00 0.00 42 1011.5
20260507002043 10 0 0.0 0.0 0.00 0.00 0.00 42 1011.5
20260507001605 10 0 0.0 0.0 0.00 0.00 0.00 41 1011.5
20260507001112 11 0 0.0 0.0 0.00 0.00 0.00 42 1011.4
20260507000546 11 0 0.0 0.0 0.00 0.00 0.00 41 1011.3
20260507000058 11 0 0.0 0.0 0.00 0.00 0.00 40 1011.3
20260506235542 11 0 0.0 0.0 0.00 0.00 0.00 40 1011.4
20260506235042 11 0 0.0 0.0 0.00 0.00 0.00 39 1011.3
20260506234552 11 0 0.0 0.0 0.00 0.00 0.00 39 1011.3
20260506234041 11 0 0.0 0.0 0.00 0.00 0.00 39 1011.3
20260506233543 11 0 0.0 0.0 0.00 0.00 0.00 39 1011.3
20260506233048 11 0 0.0 0.0 0.00 0.00 0.00 38 1011.2
20260506232542 11 0 0.0 0.0 0.00 0.00 0.00 39 1011.3
20260506232042 11 0 0.0 0.0 0.00 0.00 0.00 38 1011.2
20260506231549 11 0 0.0 1.6 0.00 0.00 0.00 38 1011.3
20260506231042 11 0 0.0 1.6 0.00 0.00 0.00 39 1011.2
20260506230542 11 0 0.0 0.0 0.00 0.00 0.00 38 1011.2
20260506230048 11 0 0.0 0.0 0.00 0.00 0.00 38 1011.2
20260506225545 11 0 0.0 0.0 0.00 0.00 0.00 37 1011.2
20260506225042 11 0 0.0 8.0 0.00 0.00 0.00 37 1011.3
20260506224546 11 0 0.0 8.0 0.00 0.00 0.00 37 1011.3
20260506224042 11 0 0.0 8.0 0.00 0.00 0.00 37 1011.2
20260506223542 11 0 0.0 0.0 0.00 0.00 0.00 37 1011.2
20260506223049 12 0 0.0 1.6 0.00 0.00 0.00 38 1011.2
20260506222542 12 0 0.0 1.6 0.00 0.00 0.00 37 1011.3
20260506222043 12 0 0.0 1.6 0.00 0.00 0.00 37 1011.4
20260506221554 12 0 0.0 1.6 0.00 0.00 0.00 37 1011.4
20260506221042 12 0 0.0 0.0 0.00 0.00 0.00 38 1011.2
20260506220542 12 0 0.0 0.0 0.00 0.00 0.00 38 1011.4
20260506220058 12 0 0.0 0.0 0.00 0.00 0.00 37 1011.2
20260506215542 12 0 0.0 0.0 0.00 0.00 0.00 37 1011.4
20260506215044 12 0 0.0 0.0 0.00 0.00 0.00 38 1011.2
20260506214547 12 0 0.0 0.0 0.00 0.00 0.00 37 1011.2
20260506214042 12 0 0.0 0.0 0.00 0.00 0.00 37 1011.2
20260506213541 12 0 0.0 0.0 0.00 0.00 0.00 38 1011.2
20260506213055 12 0 0.0 0.0 0.00 0.00 0.00 38 1011.2
20260506212542 12 0 0.0 0.0 0.00 0.00 0.00 38 1011.2
20260506212045 12 0 0.0 0.0 0.00 0.00 0.00 37 1011.2
20260506211550 12 0 0.0 0.0 0.00 0.00 0.00 38 1011.1
20260506211043 12 0 0.0 0.0 0.00 0.00 0.00 39 1011.2
20260506210543 12 0 0.0 0.0 0.00 0.00 0.00 39 1011.2
20260506210100 12 0 0.0 0.0 0.00 0.00 0.00 39 1011.2
20260506205542 12 0 0.0 0.0 0.00 0.00 0.00 38 1011.2
20260506205045 12 0 0.0 0.0 0.00 0.00 0.00 40 1011.2
20260506204554 11 0 0.0 0.0 0.00 0.00 0.00 40 1011.1
20260506204042 11 0 0.0 4.8 0.00 0.00 0.00 40 1011.3
20260506203542 12 0 0.0 9.7 0.00 0.00 0.00 39 1011.3
20260506203139 12 0 0.0 11.3 0.00 0.00 0.00 39 1011.3
20260506202542 12 0 0.0 11.3 0.00 0.00 0.00 39 1011.3
20260506202042 12 150 0.0 4.8 0.00 0.00 0.00 39 1011.3
20260506201548 11 0 0.0 0.0 0.00 0.00 0.00 39 1011.3
20260506201041 12 0 0.0 0.0 0.00 0.00 0.00 39 1011.4
20260506200541 11 0 0.0 0.0 0.00 0.00 0.00 39 1011.6
20260506200052 11 0 0.0 0.0 0.00 0.00 0.00 40 1011.6
20260506195541 11 0 0.0 0.0 0.00 0.00 0.00 40 1011.6
20260506195042 11 0 0.0 0.0 0.00 0.00 0.00 41 1011.5
20260506194550 11 0 0.0 0.0 0.00 0.00 0.00 40 1011.7
20260506194042 11 0 0.0 0.0 0.00 0.00 0.00 40 1011.5
20260506193542 11 0 0.0 0.0 0.00 0.00 0.00 39 1011.7
20260506193054 11 0 0.0 0.0 0.00 0.00 0.00 39 1011.6
20260506192541 11 0 0.0 8.0 0.00 0.00 0.00 41 1011.7
20260506192043 11 0 0.0 8.0 0.00 0.00 0.00 41 1011.7
20260506191551 11 104 0.0 6.4 0.00 0.00 0.00 40 1011.7
20260506191042 11 0 0.0 0.0 0.00 0.00 0.00 41 1011.8
20260506190542 11 0 0.0 0.0 0.00 0.00 0.00 41 1011.8
20260506190055 11 0 0.0 0.0 0.00 0.00 0.00 42 1011.8
20260506185542 11 0 0.0 0.0 0.00 0.00 0.00 42 1011.8
20260506185043 11 0 0.0 0.0 0.00 0.00 0.00 42 1011.8
20260506184555 11 0 0.0 0.0 0.00 0.00 0.00 41 1011.9
20260506184045 11 0 0.0 0.0 0.00 0.00 0.00 42 1012.0
20260506183542 11 0 0.0 0.0 0.00 0.00 0.00 42 1012.0
20260506183053 10 0 0.0 0.0 0.00 0.00 0.00 42 1011.9
20260506182541 10 0 0.0 8.0 0.00 0.00 0.00 43 1012.0
20260506182042 10 0 0.0 8.0 0.00 0.00 0.00 42 1012.0
20260506181553 10 0 0.0 0.0 0.00 0.00 0.00 43 1012.0
20260506181042 10 0 0.0 0.0 0.00 0.00 0.00 43 1012.0
20260506180543 10 0 0.0 0.0 0.00 0.00 0.00 44 1011.9
20260506180054 10 0 0.0 0.0 0.00 0.00 0.00 43 1012.0
20260506175542 10 0 0.0 0.0 0.00 0.00 0.00 44 1012.0
20260506175045 11 0 0.0 0.0 0.00 0.00 0.00 42 1012.1
20260506174559 11 0 0.0 0.0 0.00 0.00 0.00 44 1012.0
20260506174045 10 0 0.0 0.0 0.00 0.00 0.00 44 1012.1
20260506173542 10 0 0.0 0.0 0.00 0.00 0.00 44 1012.3
20260506173056 10 0 0.0 0.0 0.00 0.00 0.00 45 1012.3
20260506172542 10 0 0.0 0.0 0.00 0.00 0.00 45 1012.4
20260506172042 10 0 0.0 0.0 0.00 0.00 0.00 44 1012.4
20260506171549 10 0 0.0 0.0 0.00 0.00 0.00 44 1012.5
20260506171042 10 0 0.0 0.0 0.00 0.00 0.00 45 1012.3
20260506170539 10 0 0.0 0.0 0.00 0.00 0.00 46 1012.4
20260506170050 10 0 0.0 0.0 0.00 0.00 0.00 45 1012.3
20260506165541 10 0 0.0 0.0 0.00 0.00 0.00 46 1012.4
20260506165042 10 0 0.0 0.0 0.00 0.00 0.00 47 1012.5
20260506164552 10 0 0.0 0.0 0.00 0.00 0.00 46 1012.5
20260506164042 10 0 0.0 0.0 0.00 0.00 0.00 45 1012.5
20260506163541 10 0 0.0 0.0 0.00 0.00 0.00 45 1012.5
20260506163100 10 0 0.0 3.2 0.00 0.00 0.00 45 1012.5
20260506162541 10 0 0.0 3.2 0.00 0.00 0.00 48 1012.6
20260506162041 10 0 0.0 3.2 0.00 0.00 0.00 47 1012.5
20260506161548 10 0 0.0 0.0 0.00 0.00 0.00 46 1012.5
20260506161044 10 0 0.0 0.0 0.00 0.00 0.00 48 1012.5
20260506160542 10 0 0.0 0.0 0.00 0.00 0.00 48 1012.6
20260506160045 10 0 0.0 0.0 0.00 0.00 0.00 46 1012.6
20260506155542 10 0 0.0 0.0 0.00 0.00 0.00 48 1012.7
20260506155043 10 0 0.0 1.6 0.00 0.00 0.00 46 1012.8
20260506154548 10 0 0.0 1.6 0.00 0.00 0.00 46 1012.8
20260506154046 9 0 0.0 1.6 0.00 0.00 0.00 47 1012.8
20260506153541 10 0 0.0 0.0 0.00 0.00 0.00 49 1012.7
20260506153057 9 0 0.0 0.0 0.00 0.00 0.00 50 1012.8
20260506152541 9 0 0.0 0.0 0.00 0.00 0.00 51 1012.8
20260506152043 9 0 0.0 0.0 0.00 0.00 0.00 51 1012.9
20260506151549 8 0 0.0 0.0 0.00 0.00 0.00 51 1012.8
20260506151041 8 0 0.0 0.0 0.00 0.00 0.00 51 1012.7
20260506150541 8 0 0.0 0.0 0.00 0.00 0.00 51 1012.8
20260506150048 8 0 0.0 0.0 0.00 0.00 0.00 49 1012.5
20260506145544 8 0 0.0 0.0 0.00 0.00 0.00 49 1012.6
20260506145041 8 0 0.0 0.0 0.00 0.00 0.00 49 1012.5
20260506144547 8 0 0.0 0.0 0.00 0.00 0.00 48 1012.4
20260506144041 8 0 0.0 0.0 0.00 0.00 0.00 49 1012.5
20260506143541 8 0 0.0 1.6 0.00 0.00 0.00 48 1012.5